Location: Miles
(41.4492°N, 81.6087°W)
Time: 04:45:24
(UTC+00:00)

Courier 1B - Pass Details

Date: 14 September 2024
Orbit: 962 x 1208 km, 28.3° (Epoch: 13 October)

Event Time Altitude Azimuth Distance (km) Brightness Sun altitude
Rises 19:19:48 0° 222° (SW) 3,867 11.4 43.3°
Reaches altitude 10° 19:23:14 10° 207° (SSW) 2,957 11.1 42.9°
Maximum altitude 19:28:25 21° 162° (SSE) 2,305 10.0 42.2°
Drops below altitude 10° 19:33:48 10° 116° (ESE) 3,081 10.1 41.5°
Sets 19:37:27 0° 102° (ESE) 4,074 10.5 41.0°
